Location: Castrojimeno
(41.3966°N, 3.8473°W)
Time: 07:39:57
(UTC+00:00)

IRS-1A Rocket - Pass Details

Date: 15 May 2026
Orbit: 852 x 930 km, 98.9° (Epoch: 5 June)

Event Time Altitude Azimuth Distance (km) Brightness Sun altitude
Exits shadow 20:50:44 14° 164° (SSE) 2,339 6.0 -13.8°
Maximum altitude 20:55:54 88° 78° (ENE) 928 4.4 -14.5°
Drops below altitude 10° 21:01:50 10° 347° (NNW) 2,641 7.7 -15.3°
Sets 21:04:17 0° 347° (NNW) 3,591 8.5 -15.6°
